Regional Weather Roundup
Issued by NWS Grand Forks, ND

Home | Current Version | Previous Version | Text Only | Print | Product List | Glossary Off
Versions: 1 2 3 4 5 6 7 8 9 10 11 12 13 14 15 16 17 18 19 20 21 22 23 24 25 26 27 28 29 30 31 32 33 34 35 36 37 38 39 40 41 42 43 44 45 46 47 48 49 50

000
ASUS43 KFGF 222131
RWRFGF
PRAIRIE TO PINES  WEATHER ROUNDUP
NATIONAL WEATHER SERVICE EASTERN NORTH DAKOTA/GRAND FORKS ND
400 PM CDT TUE JUL 22 2014

 **SATELLITE DATA USED TO AUGMENT SKY COVER AT AUTOMATED STATIONS**
 *****  WEATHER ACROSS EASTERN NORTH DAKOTA  *****

CITY           SKY/WX    TMP DP  RH WIND       PRES   REMARKS
GRAND FORKS    MOSUNNY   76  57  51 N14       30.16S
GRAND FRKS AFB SUNNY     76  60  56 N10G20    30.18S
GRAND FRKS NWS   N/A     77 N/A N/A N6          N/A
DEVILS LAKE    MOSUNNY   73  57  56 N6        30.19R
FARGO          SUNNY     79  57  46 N18G26    30.15S
WAHPETON ARPT  PTCLDY    79  54  41 N15       30.16R
$$

 ***** WEATHER ACROSS CENTRAL AND WESTERN NORTH DAKOTA  *****

CITY           SKY/WX    TMP DP  RH WIND       PRES   REMARKS
BISMARCK       PTSUNNY   81  59  47 VRB6      30.21S
MINOT          MOSUNNY   78  60  53 NE6       30.20S
JAMESTOWN      MOSUNNY   78  59  51 N7        30.19R
MINOT AFB      SUNNY     77  62  59 VRB5      30.20S
GARRISON         N/A     78  62  57 VRB3      30.20S
WILLISTON      MOSUNNY   87  55  33 NW10      30.17S
DICKINSON      SUNNY     80  63  55 E7        30.21S
HETTINGER      PTSUNNY   80  62  54 E13       30.22S
$$

 *****  OTHER AIRPORT OBSERVATIONS IN OUR AREA  *****

CITY           SKY/WX    TMP DP  RH WIND       PRES   REMARKS
WALHALLA       FAIR      75  55  50 NW13        N/A
GRAFTON AIRPOR FAIR      75  57  53 N10       30.17F
VALLEY CITY AR FAIR      77  57  50 N10       30.19S
CANDO          FAIR      77  59  53 NE6       30.21S
CAVALIER APRT  FAIR      75  57  53 N13G18    30.18S
GWINNER        CLEAR     81  57  44 N10G18    30.19R
SHEYENNE NWR     N/A     80  59  47 N8        29.95
ROLLA            N/A     73  57  56 NW7       30.23R
 ***** THE ABOVE OBSERVATIONS ARE NON NWS ARE NOT QUALITY
       CONTROLLED AND MAY MIS-REPORT RAIN FOR SNOW...
$$

  *****  WEATHER ACROSS NORTHERN MINNESOTA  *****

CITY           SKY/WX    TMP DP  RH WIND       PRES   REMARKS
FLAG ISLAND    SUNNY     73  52  46 NW17      30.11S
WARROAD        MOSUNNY   75  54  46 N10       30.13S
ROSEAU         MOSUNNY   77  55  47 NW12G18   30.14S
HALLOCK        SUNNY     75  52  43 NW13G20   30.16S
THF RVR FALLS  PTSUNNY   73  55  53 NW14G21   30.16S
BAUDETTE       SUNNY     75  50  41 NW10      30.13R
WASKISH        SUNNY     75  55  50 NW9G17    30.12S
CROOKSTON      SUNNY     75  57  53 N14G21    30.17S
$$
  *****  WEATHER ACROSS CENTRAL AND WEST MINNESOTA  *****

CITY           SKY/WX    TMP DP  RH WIND       PRES   REMARKS
FOSSTON        SUNNY     73  55  53 NW12      30.16S
BEMIDJI        PTSUNNY   75  53  45 NW15      30.13R
PARK RAPIDS    SUNNY     77  47  34 N18G26    30.12R
ELBOW LAKE     FAIR      75  58  54 N17G23    30.14S
WADENA         MOSUNNY   75  55  50 N10G18    30.12R
DETROIT LAKES  SUNNY     73  54  49 N12G26    30.16S
MOORHEAD       SUNNY     77  63  61 N14       30.16S
FERGUS FALLS   MOSUNNY   77  54  44 N17G31    30.14R
MORRIS MN      MOSUNNY   75  57  53 N14G21    30.14R
STAPLES        PTSUNNY   79  52  38 NW15      30.11R
$$
  *****  WEATHER ELSEWHERE ACROSS MINNESOTA  *****

CITY           SKY/WX    TMP DP  RH WIND       PRES   REMARKS
DULUTH         MOSUNNY   77  56  48 N17G23    30.03R
INTRNTL FALLS  MOSUNNY   75  52  44 NW15G23   30.08R
ELY            MOSUNNY   72  52  49 N8G25     30.06R
CLOQUET        MOSUNNY   77  54  44 N18G24    30.05R
WHEATON        MOSUNNY   75  57  53 NW14      30.17S
BRAINERD       MOSUNNY   77  52  41 N13G24    30.09R
HIBBING        MOSUNNY   78  54  43 N16G26    30.06R
ALEXANDRIA     PTSUNNY   77  54  44 N13       30.14R
SAINT CLOUD    MOSUNNY   83  52  34 NW9G22    30.07R
MINNEAPOLIS    MOSUNNY   84  60  44 NW15G22   30.03S
$$

  *****  WEATHER ACROSS SOUTH DAKOTA  *****

CITY           SKY/WX    TMP DP  RH WIND       PRES   REMARKS
SIOUX FALLS    MOSUNNY   81  61  50 NE9       30.16R
BROOKINGS      NOT AVBL
WATERTOWN      SUNNY     79  55  43 N10G21    30.18R
HURON          SUNNY     82  59  45 NE9G17    30.17R
SISSETON         N/A     79  59  50 N16G22    30.16R
ABERDEEN       SUNNY     80  61  52 NE14      30.18R
MITCHELL       SUNNY     84  59  42 NE13      30.18R
PIERRE         SUNNY     88  57  34 VRB6      30.17S
MOBRIDGE       SUNNY     84  58  40 VRB5      30.17F
RAPID CITY     SUNNY     85  60  42 SE14      30.23S
$$

  *****  SOME WEATHER IN NEARBY STATES *****

CITY           SKY/WX    TMP DP  RH WIND       PRES   REMARKS
GLASGOW MT     CLOUDY    84  50  30 VRB3      30.17S
GREAT FALLS MT SUNNY     84  50  30 NE12      30.17F
CHEYENNE WY    SUNNY     85  52  32 VRB7      30.37F
SCOTTSBLUFF NE SUNNY     92  58  31 E12       30.23F HX  91
OMAHA NE       MOSUNNY   89  70  53 N18       30.06R HX  94
DES MOINES IA  MOSUNNY   91  74  57 N12       30.01S HX 100
DAVENPORT IA   MOSUNNY   86  77  74 S9        29.95F HX  97
CHICAGO IL     PTSUNNY   90  71  53 SW16      29.93S HX  96
EAU CLAIRE WI  PTSUNNY   81  64  56 NW17G23   30.00R
LA CROSSE WI   MOSUNNY   89  67  47 NW15      29.97R HX  92
$$

  *****  SOME NATIONAL WEATHER *****

CITY           SKY/WX    TMP DP  RH WIND       PRES   REMARKS
LA GUARDIA NY  MOSUNNY   84  66  54 S16       30.06F
RALEIGH NC     PTSUNNY   83  69  62 E5        30.10F
ATLANTA GA     PTSUNNY   81  68  64 SE7       30.09F
NEW ORLEANS LA PTSUNNY   88  72  58 SE5       29.99F HX  94
OKLAHOMA CITY  MOSUNNY   95  67  39 CALM      30.07F HX  99
ALBUQUERQUE NM PTSUNNY   93  48  21 E16       30.23S
SALT LAKE CITY MOSUNNY   96  26   8 W6        30.15F HX  90
LOS ANGELES CA MOSUNNY   75  61  61 W15       30.05F
BOISE ID       PTSUNNY   91  41  17 CALM      30.10F
SEATTLE WA     DRIZZLE   60  56  86 CALM      30.10S FOG
$$

*** WEATHER ACROSS MANITOBA...SASKATCHEWAN AND ONTARIO ***
                ***ONTARIO***

CITY           SKY/WX    TMP DP  RH WIND       PRES   REMARKS
GERALDTON      LGT RAIN N/A N/A N/A N16G24      N/A
THUNDER BAY    PTSUNNY   70  59  68 NW23G30   29.97R
SIOUX LOOKOUT  PTSUNNY   70  54  56 N7G17     30.06R
TORONTO        SUNNY     84  63  48 S12       29.98S
BIG TROUT LK   MOSUNNY   66  43  42 N6G17     30.07R
PICKLE LAKE    PTSUNNY   66  48  52 NW7G20    30.04R
DRYDEN         CLOUDY    70  54  56 NW8G18    30.07R
KENORA         PTSUNNY   73  52  46 NW13G22   30.11R
$$
                *** MANITOBA***

CITY           SKY/WX    TMP DP  RH WIND       PRES   REMARKS
BRANDON        PTSUNNY   75  57  53 E8        30.20S
DAUPHIN        MOSUNNY   73  59  60 E6        30.21S
ISLAND LAKE    MOSUNNY   66  46  48 N8        30.17R
PILOT MOUND      N/A     73  55  53 N5          N/A
THE PAS        MOSUNNY   72  46  40 CALM      30.22S
THOMPSON       PTSUNNY   70  50  49 W9        30.19R
WINNIPEG       PTSUNNY   73  54  49 NW14G21   30.17R
LYNN LAKE      MOSUNNY   72  43  35 W9        30.21S
CHURCHILL      MOSUNNY   66  50  55 E10       30.05F
GILLAM         MOSUNNY   66  50  55 W7        30.14S
$$
                ***SASKATCHEWAN***

CITY           SKY/WX    TMP DP  RH WIND       PRES   REMARKS
ESTEVAN        PTSUNNY   77  59  53 N3        30.21F
KINDERSLEY     PTSUNNY   73  55  53 SE8       30.22
LLOYDMINSTER   PTSUNNY   73  54  49 S8        30.21S
PRINCE ALBERT  CLOUDY    75  50  41 VRB2      30.24R
REGINA         MOSUNNY   77  50  38 N6        30.24S
YORKTON        MOSUNNY   75  52  43 NE6       30.24S
N. BATTLEFORD  MOSUNNY   75  55  50 SE5       30.24S
LA RONGE       MOSUNNY   77  45  31 E7        30.21S
SASKATOON      PTSUNNY   77  55  47 CALM      30.25R
SWIFT CURRENT  MOSUNNY   75  55  50 SE13      30.23S
$$
NOTE: THESE ARE AUTOMATED STATIONS WITH LIMITED QUALITY CONTROL
      "FAIR" INDICATES FEW OR NO CLOUDS BELOW 12,000 FEET WITH NO
      SIGNIFICANT WEATHER AND/OR OBSTRUCTIONS TO VISIBILITY.
      SKY/WX - SKY CONDITION AND SIGNIFICANT WEATHER.
      TMP - AIR TEMPERATURE.    DP   - DEWPOINT TEMPERATURE.
      RH  - RELATIVE HUMIDITY.  PRES - PRESSURE.
      HX  - HEAT INDEX.         WCI  - WIND CHILL INDEX.
$


USA.gov is the U.S. government's official web portal to all federal, state and local government web resources and services.